When you browse on this site, cookies collect data to enhance your experience and personalize the content and advertising you see.
Visit our Privacy Policy to learn more. By continuing to use the site, you agree to this use of cookies and data.
  • En España
  • Lista de países
  • Para 7 días
  • Temperatura del agua
  • Mapa Satelital
  • El tiempo en el mapa
  • Informadores
  • user-avatar
    Iniciar sesión

    Tiempo cada hora Pamporovo

    Hoy, 21 Enero, Lunes

    Tiempo Temperatura Precipitaciones Viento Presión Humedad
    00:00 -4°C° 0 mm 1 mps 619 mmHg 88%
    01:00 -4°C° 0 mm 1 mps 619 mmHg 86%
    02:00 -4°C° 0 mm 1 mps 619 mmHg 86%
    03:00 -4°C° 0 mm 1 mps 619 mmHg 86%
    04:00 -6°C° 0 mm 1 mps 619 mmHg 86%
    05:00 -6°C° 0 mm 1 mps 619 mmHg 85%
    06:00 -6°C° 0 mm 1 mps 619 mmHg 86%
    07:00 -6°C° 0 mm 1 mps 619 mmHg 86%
    08:00 -6°C° 0 mm 1 mps 619 mmHg 87%
    09:00 -3°C° 0 mm 1 mps 620 mmHg 88%
    10:00 -1°C° 0 mm 1 mps 621 mmHg 89%
    11:00 0°C° 0 mm 0 mps 622 mmHg 91%
    12:00 +1°C° 0 mm 1 mps 622 mmHg 91%
    13:00 +1°C° 0 mm 1 mps 622 mmHg 91%
    14:00 +1°C° 0 mm 1 mps 622 mmHg 91%
    15:00 +1°C° 0.1 mm 1 mps 622 mmHg 93%
    16:00 0°C° 0.1 mm 1 mps 622 mmHg 94%
    17:00 -1°C° 0.1 mm 1 mps 622 mmHg 96%
    18:00 -1°C° 0.1 mm 1 mps 622 mmHg 97%
    19:00 -2°C° 0.1 mm 0 mps 622 mmHg 97%
    20:00 -3°C° 0.1 mm 0 mps 622 mmHg 98%
    21:00 -3°C° 0 mm 0 mps 622 mmHg 98%
    22:00 -4°C° 0 mm 0 mps 622 mmHg 97%
    23:00 -4°C° 0 mm 0 mps 622 mmHg 97%

    Mañana, 22 Enero, Martes

    Tiempo Temperatura Precipitaciones Viento Presión Humedad
    00:00 -4°C° 0 mm 0 mps 622 mmHg 97%
    01:00 -4°C° 0 mm 0 mps 621 mmHg 97%
    02:00 -4°C° 0 mm 0 mps 621 mmHg 98%
    03:00 -3°C° 0.1 mm 1 mps 621 mmHg 98%
    04:00 -3°C° 0.1 mm 1 mps 621 mmHg 98%
    05:00 -3°C° 0.1 mm 1 mps 621 mmHg 98%
    06:00 -3°C° 0.3 mm 1 mps 621 mmHg 98%
    07:00 -3°C° 0.3 mm 1 mps 621 mmHg 98%
    08:00 -2°C° 0.3 mm 1 mps 621 mmHg 98%
    09:00 -2°C° 0.1 mm 1 mps 621 mmHg 97%
    10:00 -1°C° 0.1 mm 1 mps 621 mmHg 97%
    11:00 -3°C° 0.1 mm 2 mps 621 mmHg 97%
    12:00 -3°C° 0.1 mm 2 mps 621 mmHg 97%
    13:00 -2°C° 0.1 mm 2 mps 620 mmHg 96%
    14:00 -2°C° 0.1 mm 2 mps 620 mmHg 96%
    15:00 -2°C° 0.1 mm 2 mps 619 mmHg 96%
    16:00 -3°C° 0.1 mm 2 mps 619 mmHg 97%
    17:00 -3°C° 0.1 mm 2 mps 618 mmHg 97%
    18:00 -3°C° 0.2 mm 2 mps 618 mmHg 97%
    19:00 -3°C° 0.2 mm 2 mps 618 mmHg 96%
    20:00 -3°C° 0.2 mm 2 mps 617 mmHg 96%
    21:00 -3°C° 0.9 mm 2 mps 617 mmHg 96%
    22:00 -3°C° 0.9 mm 2 mps 616 mmHg 97%
    23:00 -3°C° 0.9 mm 2 mps 616 mmHg 98%

    Pasado mañana, 23 Enero, Miércoles

    Tiempo Temperatura Precipitaciones Viento Presión Humedad
    00:00 -2°C° 0.6 mm 2 mps 616 mmHg 98%
    01:00 -2°C° 0.6 mm 3 mps 615 mmHg 98%
    02:00 -2°C° 0.6 mm 3 mps 615 mmHg 98%
    03:00 -2°C° 0.1 mm 3 mps 614 mmHg 98%
    04:00 -2°C° 0.1 mm 3 mps 614 mmHg 97%
    05:00 -2°C° 0.1 mm 2 mps 614 mmHg 97%
    06:00 -2°C° 0 mm 2 mps 614 mmHg 97%
    07:00 -3°C° 0 mm 2 mps 614 mmHg 96%
    08:00 -3°C° 0 mm 2 mps 614 mmHg 96%
    09:00 -2°C° 0 mm 2 mps 614 mmHg 95%
    10:00 -1°C° 0 mm 2 mps 614 mmHg 94%
    11:00 -1°C° 0 mm 2 mps 615 mmHg 94%
    12:00 -1°C° 0 mm 2 mps 615 mmHg 93%
    13:00 0°C° 0 mm 3 mps 614 mmHg 92%
    14:00 0°C° 0 mm 3 mps 614 mmHg 91%
    15:00 -1°C° 0 mm 2 mps 614 mmHg 91%
    16:00 -1°C° 0 mm 2 mps 614 mmHg 92%
    17:00 -2°C° 0 mm 2 mps 613 mmHg 92%
    18:00 -2°C° 0 mm 2 mps 613 mmHg 93%
    19:00 -1°C° 0 mm 1 mps 613 mmHg 94%
    20:00 -2°C° 0 mm 1 mps 613 mmHg 95%
    21:00 -3°C° 1 mm 2 mps 613 mmHg 96%
    22:00 -3°C° 1 mm 2 mps 613 mmHg 97%
    23:00 -2°C° 1 mm 2 mps 613 mmHg 98%

    24 Enero, Jueves

    Tiempo Temperatura Precipitaciones Viento Presión Humedad
    00:00 -2°C° 1.6 mm 2 mps 613 mmHg 98%
    01:00 -2°C° 1.6 mm 2 mps 613 mmHg 98%
    02:00 -2°C° 1.6 mm 2 mps 612 mmHg 98%
    03:00 -2°C° 3.1 mm 2 mps 612 mmHg 99%
    04:00 0°C° 3.1 mm 1 mps 611 mmHg 99%
    05:00 0°C° 3.1 mm 1 mps 611 mmHg 99%
    06:00 0°C° 3.1 mm 1 mps 611 mmHg 99%
    07:00 0°C° 3.1 mm 1 mps 611 mmHg 98%
    08:00 0°C° 3.1 mm 1 mps 611 mmHg 98%
    09:00 0°C° 5.2 mm 1 mps 611 mmHg 98%
    10:00 0°C° 5.2 mm 1 mps 610 mmHg 98%
    11:00 0°C° 5.2 mm 1 mps 610 mmHg 98%
    12:00 0°C° 5 mm 1 mps 610 mmHg 99%
    13:00 0°C° 5 mm 1 mps 610 mmHg 99%
    14:00 0°C° 5 mm 1 mps 610 mmHg 99%
    15:00 0°C° 1.8 mm 1 mps 609 mmHg 99%
    16:00 0°C° 1.8 mm 1 mps 609 mmHg 99%
    17:00 0°C° 1.8 mm 1 mps 609 mmHg 99%
    18:00 0°C° 1.5 mm 1 mps 610 mmHg 99%
    19:00 0°C° 1.5 mm 1 mps 610 mmHg 98%
    20:00 0°C° 1.5 mm 1 mps 610 mmHg 98%
    21:00 0°C° 2.1 mm 1 mps 610 mmHg 98%
    22:00 0°C° 2.1 mm 1 mps 611 mmHg 98%
    23:00 0°C° 2.1 mm 1 mps 611 mmHg 98%

    25 Enero, Viernes

    Tiempo Temperatura Precipitaciones Viento Presión Humedad
    00:00 -1°C° 2.3 mm 1 mps 611 mmHg 98%
    01:00 -1°C° 2.3 mm 1 mps 611 mmHg 98%
    02:00 -1°C° 2.3 mm 1 mps 611 mmHg 98%
    03:00 -1°C° 1.5 mm 1 mps 611 mmHg 98%
    04:00 -1°C° 1.5 mm 1 mps 612 mmHg 98%
    05:00 -1°C° 1.5 mm 1 mps 612 mmHg 99%
    06:00 -1°C° 0.2 mm 1 mps 612 mmHg 98%
    07:00 -1°C° 0.2 mm 1 mps 612 mmHg 98%
    08:00 -1°C° 0.2 mm 1 mps 612 mmHg 98%
    09:00 -1°C° 4.5 mm 1 mps 612 mmHg 98%
    10:00 -1°C° 4.5 mm 1 mps 612 mmHg 99%
    11:00 0°C° 4.5 mm 1 mps 612 mmHg 99%
    12:00 0°C° 3.4 mm 1 mps 612 mmHg 99%
    13:00 0°C° 3.4 mm 1 mps 612 mmHg 99%
    14:00 0°C° 3.4 mm 1 mps 612 mmHg 99%
    15:00 -2°C° 2.1 mm 2 mps 611 mmHg 98%
    16:00 -2°C° 2.1 mm 2 mps 611 mmHg 98%
    17:00 -2°C° 2.1 mm 3 mps 611 mmHg 97%
    18:00 -2°C° 0.7 mm 3 mps 611 mmHg 98%
    19:00 -2°C° 0.7 mm 2 mps 612 mmHg 98%
    20:00 -3°C° 0.7 mm 2 mps 612 mmHg 98%
    21:00 -3°C° 0.2 mm 2 mps 612 mmHg 98%
    22:00 -1°C° 0.2 mm 1 mps 612 mmHg 98%
    23:00 -1°C° 0.2 mm 1 mps 612 mmHg 99%

    26 Enero, Sábado

    Tiempo Temperatura Precipitaciones Viento Presión Humedad
    00:00 -1°C° 0 mm 1 mps 612 mmHg 98%
    01:00 -2°C° 0 mm 1 mps 612 mmHg 98%
    02:00 -2°C° 0 mm 1 mps 612 mmHg 98%
    03:00 -2°C° 0 mm 1 mps 612 mmHg 98%
    04:00 -2°C° 0 mm 1 mps 612 mmHg 97%
    05:00 -2°C° 0 mm 1 mps 612 mmHg 97%
    06:00 -3°C° 0.1 mm 1 mps 612 mmHg 96%
    07:00 -5°C° 0.1 mm 2 mps 612 mmHg 95%
    08:00 -5°C° 0.1 mm 2 mps 612 mmHg 93%
    09:00 -5°C° 0.5 mm 2 mps 612 mmHg 93%
    10:00 -5°C° 0.5 mm 2 mps 612 mmHg 93%
    11:00 -5°C° 0.5 mm 2 mps 613 mmHg 92%
    12:00 -5°C° 0.5 mm 2 mps 612 mmHg 92%
    13:00 -6°C° 0.5 mm 3 mps 612 mmHg 92%
    14:00 -6°C° 0.5 mm 3 mps 612 mmHg 92%
    15:00 -6°C° 1.4 mm 3 mps 612 mmHg 93%
    16:00 -7°C° 1.4 mm 3 mps 612 mmHg 94%
    17:00 -7°C° 1.4 mm 3 mps 612 mmHg 95%
    18:00 -7°C° 1 mm 2 mps 612 mmHg 95%
    19:00 -7°C° 1 mm 2 mps 612 mmHg 95%
    20:00 -7°C° 1 mm 2 mps 612 mmHg 95%
    21:00 -7°C° 0.4 mm 2 mps 612 mmHg 95%
    22:00 -7°C° 0.4 mm 2 mps 613 mmHg 95%
    23:00 -7°C° 0.4 mm 2 mps 613 mmHg 94%
    Mostrar más